Погода в Новоспасском

Россия / Самарская область     52°59′56″N   48°46′22″E
темп.,
°C
ветер,
м/с
пор.,
м/с
влажн.,
%
обл.,
%
осадки,
мм/ч
давл.,
гПа
погр.,
м
21 января, чт
чт2101:00−22зюз239136 0.0 102221
04:00−22юз239217 0.0 102222
07:00−21юз23940 0.0 102323
10:00−20юз33940 0.0 102340
13:00−15юз369251 0.0 1023217
16:00−11зюз399276 0.0 1022366
19:00−11зюз3790100 0.0 1022216
22:00−11юз3791100 0.1 1021306
22 января, пт
пт2201:00−11юз4895100 0.8 1020332
04:00−12юз4895100 2.3 1019417
07:00−13юз3595100 0.5 1019139
10:00−14з2391100 0.5 102029
13:00−12з229195 0.0 1020131
16:00−13юз128991 0.0 102120
19:00−14ююв118994 0.0 102220
22:00−13юв229496 0.0 102332
23 января, сб
сб2301:00−12юв3496100 0.4 1024143
04:00−11юв3696100 0.9 1023245
07:00−10ююв4895100 0.5 1024273
10:00−8ююв4895100 0.8 1023278
13:00−3ююв4797100 0.8 1023284
16:00+1юз49100100 1.4 1022304
19:00+1юз499798 0.0 1022342
22:00+1ююз589799 0.0 1022275
24 января, вс
вс2401:00+1ююз51098100 0.0 1023341
04:00+1юз41197100 0.0 1024383
07:00+1ююз4993100 0.0 1024326
10:00−2ююз61188100 0.2 1025290
13:00−1ююз5989100 0.0 1026352
16:00−1ююз5118999 0.0 1026363
19:00−3ююз4992100 0.0 1027228
22:00−4ююз489699 0.0 1028205
25 января, пн
пн2501:00−4ююз4997100 0.0 1028286
04:00−3ююз4896100 0.0 1029349
07:00−4ю5997100 0.0 1029379
10:00−3ю5897100 0.1 1029537
13:00−2ю6995100 0.1 1028582
16:00−2ю5992100 0.1 1027613
19:00−4ю51094100 0.0 1027493
22:00−4ю51194100 0.1 1026480